Orbital Elements at Epoch 2459000.5 (2020-May-31.0) TDB
Reference: JPL 15 (heliocentric ecliptic J2000)
Element | Value | Uncertainty (1-sigma) | Units |
e | .1050987621858237 | 4.5647e-08 | |
a | 3.171976385425767 | 2.9969e-08 | au |
q | 2.838605593634856 | 1.3696e-07 | au |
i | 11.70292158413756 | 6.8871e-06 | deg |
node | 338.1755638918777 | 2.3695e-05 | deg |
peri | 92.87364154548378 | 4.531e-05 | deg |
M | 88.03218175224708 | 3.6155e-05 | deg |
tp | 2458495.917354251300 (2019-Jan-12.41735425) | 0.0002065 | TDB |
period | 2063.447126424255 5.65 | 2.9244e-05 8.007e-08 | d yr |
n | .1744653378271163 | 2.4726e-09 | deg/d |
Q | 3.505347177216679 | 3.3119e-08 | au |
|
| | Orbit Determination Parameters
Additional Information
|